This is the latest recevied weather packets stored in our database for station/object DL1GHN-6. If no packets are shown the sender has not sent any weather packets the latest 1 day(s).
| Time | Temp. | Humidity | Pressure | Rain* | Wind** | Luminosity | Snow |
|---|---|---|---|---|---|---|---|
| 1778047662 | 13.33° C | 85% | 1006.3 hPa | 0 mm | - | 39 W/m² | - |
| 1778047363 | 13.33° C | 86% | 1006.3 hPa | 0 mm | - | 35 W/m² | - |
| 1778046763 | 12.78° C | 88% | 1006.4 hPa | 0 mm | - | 37 W/m² | - |
| 1778045862 | 11.67° C | 89% | 1006.4 hPa | 0 mm | - | 39 W/m² | - |
| 1778045261 | 11.11° C | 90% | 1006.4 hPa | 0 mm | - | 40 W/m² | - |
| 1778044962 | 10.56° C | 90% | 1006.5 hPa | 0 mm | - | 95 W/m² | - |
| 1778044662 | 10° C | 89% | 1006.5 hPa | 0 mm | - | 86 W/m² | - |
| 1778044361 | 10° C | 89% | 1006.4 hPa | 0 mm | - | 56 W/m² | - |
| 1778044062 | 9.44° C | 89% | 1006.5 hPa | 0 mm | - | 62 W/m² | - |
| 1778043762 | 9.44° C | 89% | 1006.6 hPa | 0 mm | - | 35 W/m² | - |
| 1778043462 | 9.44° C | 88% | 1006.5 hPa | 0 mm | - | 23 W/m² | - |
| 1778043161 | 9.44° C | 88% | 1006.6 hPa | 0 mm | - | 19 W/m² | - |
| 1778042862 | 9.44° C | 88% | 1006.5 hPa | 0 mm | - | 18 W/m² | - |
| 1778042563 | 9.44° C | 88% | 1006.5 hPa | 0 mm | - | 14 W/m² | - |
| 1778042262 | 9.44° C | 87% | 1006.5 hPa | 0 mm | - | 12 W/m² | - |
| 1778041962 | 9.44° C | 87% | 1006.6 hPa | 0 mm | - | 11 W/m² | - |
| 1778041663 | 9.44° C | 87% | 1006.7 hPa | 0 mm | - | 9 W/m² | - |
| 1778041362 | 9.44° C | 86% | 1006.7 hPa | 0 mm | - | 7 W/m² | - |
| 1778041062 | 9.44° C | 86% | 1006.7 hPa | 0 mm | - | 5 W/m² | - |
| 1778040462 | 9.44° C | 86% | 1006.6 hPa | 0 mm | - | 0 W/m² | - |
| 1778039563 | 10° C | 86% | 1006.6 hPa | 0 mm | - | 0 W/m² | - |
| 1778039261 | 10° C | 85% | 1006.7 hPa | 0 mm | - | 0 W/m² | - |
| 1778037761 | 10.56° C | 84% | 1006.8 hPa | 0 mm | - | 0 W/m² | - |
| 1778037318 | 11.11° C | 83% | 1006.8 hPa | 0 mm | - | 0 W/m² | - |
| 1778037017 | 11.11° C | 83% | 1006.8 hPa | 0 mm | - | 0 W/m² | - |
* Rain latest hour (hover to see other rain measurements)
** Current wind speed in m/s (hover to see current wind gust speed)